Year,Month,Day,Hour,Minute,Value (Times are PST for temperature in C)
2012,09,30,00,00,9.60
2012,09,30,00,01,9.60
2012,09,30,00,02,9.50
2012,09,30,00,03,9.50
2012,09,30,00,04,9.50
2012,09,30,00,05,9.40
2012,09,30,00,06,9.40
2012,09,30,00,07,9.40
2012,09,30,00,08,9.40
2012,09,30,00,09,9.40
2012,09,30,00,10,9.40
2012,09,30,00,11,9.40
2012,09,30,00,12,9.40
2012,09,30,00,13,9.40
2012,09,30,00,14,9.40
2012,09,30,00,15,9.50
2012,09,30,00,16,9.50
2012,09,30,00,17,9.50
2012,09,30,00,18,9.50
2012,09,30,00,19,9.40
2012,09,30,00,20,9.40
2012,09,30,00,21,9.40
2012,09,30,00,22,9.50
2012,09,30,00,23,9.50
2012,09,30,00,24,9.50
2012,09,30,00,25,9.50
2012,09,30,00,26,9.50
2012,09,30,00,27,9.40
2012,09,30,00,28,9.40
2012,09,30,00,29,9.50
2012,09,30,00,30,9.50
2012,09,30,00,31,9.60
2012,09,30,00,32,9.60
2012,09,30,00,33,9.50
2012,09,30,00,34,9.50
2012,09,30,00,35,9.40
2012,09,30,00,36,9.40
2012,09,30,00,37,9.40
2012,09,30,00,38,9.50
2012,09,30,00,39,9.50
2012,09,30,00,40,9.50
2012,09,30,00,41,9.50
2012,09,30,00,42,9.50
2012,09,30,00,43,9.50
2012,09,30,00,44,9.50
2012,09,30,00,45,9.50
2012,09,30,00,46,9.50
2012,09,30,00,47,9.40
2012,09,30,00,48,9.40
2012,09,30,00,49,9.40
2012,09,30,00,50,9.30
2012,09,30,00,51,9.30
2012,09,30,00,52,9.30
2012,09,30,00,53,9.30
2012,09,30,00,54,9.30
2012,09,30,00,55,9.30
2012,09,30,00,56,9.30
2012,09,30,00,57,9.30
2012,09,30,00,58,9.30
2012,09,30,00,59,9.30
2012,09,30,01,00,9.30
2012,09,30,01,01,9.30
2012,09,30,01,02,9.30
2012,09,30,01,03,9.30
2012,09,30,01,04,9.30
2012,09,30,01,05,9.20
2012,09,30,01,06,9.20
2012,09,30,01,07,9.20
2012,09,30,01,08,9.20
2012,09,30,01,09,9.20
2012,09,30,01,10,9.20
2012,09,30,01,11,9.20
2012,09,30,01,12,9.20
2012,09,30,01,13,9.20
2012,09,30,01,14,9.20
2012,09,30,01,15,9.20
2012,09,30,01,16,9.20
2012,09,30,01,17,9.20
2012,09,30,01,18,9.20
2012,09,30,01,19,9.20
2012,09,30,01,20,9.20
2012,09,30,01,21,9.20
2012,09,30,01,22,9.20
2012,09,30,01,23,9.20
2012,09,30,01,24,9.20
2012,09,30,01,25,9.20
2012,09,30,01,26,9.20
2012,09,30,01,27,9.20
2012,09,30,01,28,9.20
2012,09,30,01,29,9.20
2012,09,30,01,30,9.20
2012,09,30,01,31,9.20
2012,09,30,01,32,9.20
2012,09,30,01,33,9.20
2012,09,30,01,34,9.20
2012,09,30,01,35,9.20
2012,09,30,01,36,9.20
2012,09,30,01,37,9.30
2012,09,30,01,38,9.30
2012,09,30,01,39,9.30
2012,09,30,01,40,9.40
2012,09,30,01,41,9.40
2012,09,30,01,42,9.40
2012,09,30,01,43,9.50
2012,09,30,01,44,9.50
2012,09,30,01,45,9.50
2012,09,30,01,46,9.50
2012,09,30,01,47,9.50
2012,09,30,01,48,9.50
2012,09,30,01,49,9.60
2012,09,30,01,50,9.60
2012,09,30,01,51,9.60
2012,09,30,01,52,9.60
2012,09,30,01,53,9.60
2012,09,30,01,54,9.60
2012,09,30,01,55,9.50
2012,09,30,01,56,9.50
2012,09,30,01,57,9.50
2012,09,30,01,58,9.50
2012,09,30,01,59,9.50
2012,09,30,02,00,9.50
2012,09,30,02,01,9.50
2012,09,30,02,02,9.50
2012,09,30,02,03,9.50
2012,09,30,02,04,9.50
2012,09,30,02,05,9.50
2012,09,30,02,06,9.50
2012,09,30,02,07,9.50
2012,09,30,02,08,9.50
2012,09,30,02,09,9.50
2012,09,30,02,10,9.50
2012,09,30,02,11,9.50
2012,09,30,02,12,9.50
2012,09,30,02,13,9.50
2012,09,30,02,14,9.50
2012,09,30,02,15,9.50
2012,09,30,02,16,9.50
2012,09,30,02,17,9.50
2012,09,30,02,18,9.50
2012,09,30,02,19,9.50
2012,09,30,02,20,9.50
2012,09,30,02,21,9.50
2012,09,30,02,22,9.50
2012,09,30,02,23,9.50
2012,09,30,02,24,9.50
2012,09,30,02,25,9.50
2012,09,30,02,26,9.50
2012,09,30,02,27,9.50
2012,09,30,02,28,9.50
2012,09,30,02,29,9.50
2012,09,30,02,30,9.50
2012,09,30,02,31,9.50
2012,09,30,02,32,9.50
2012,09,30,02,33,9.40
2012,09,30,02,34,9.40
2012,09,30,02,35,9.40
2012,09,30,02,36,9.40
2012,09,30,02,37,9.40
2012,09,30,02,38,9.40
2012,09,30,02,39,9.40
2012,09,30,02,40,9.40
2012,09,30,02,41,9.30
2012,09,30,02,42,9.20
2012,09,30,02,43,9.20
2012,09,30,02,44,9.20
2012,09,30,02,45,9.20
2012,09,30,02,46,9.20
2012,09,30,02,47,9.20
2012,09,30,02,48,9.20
2012,09,30,02,49,9.20
2012,09,30,02,50,9.20
2012,09,30,02,51,9.20
2012,09,30,02,52,9.20
2012,09,30,02,53,9.20
2012,09,30,02,54,9.20
2012,09,30,02,55,9.20
2012,09,30,02,56,9.20
2012,09,30,02,57,9.20
2012,09,30,02,58,9.20
2012,09,30,02,59,9.20
2012,09,30,03,00,9.20
2012,09,30,03,01,9.20
2012,09,30,03,02,9.20
2012,09,30,03,03,9.10
2012,09,30,03,04,9.10
2012,09,30,03,05,9.10
2012,09,30,03,06,9.10
2012,09,30,03,07,9.10
2012,09,30,03,08,9.10
2012,09,30,03,09,9.10
2012,09,30,03,10,9.10
2012,09,30,03,11,9.20
2012,09,30,03,12,9.20
2012,09,30,03,13,9.20
2012,09,30,03,14,9.20
2012,09,30,03,15,9.20
2012,09,30,03,16,9.20
2012,09,30,03,17,9.20
2012,09,30,03,18,9.20
2012,09,30,03,19,9.20
2012,09,30,03,20,9.20
2012,09,30,03,21,9.30
2012,09,30,03,22,9.30
2012,09,30,03,23,9.30
2012,09,30,03,24,9.30
2012,09,30,03,25,9.30
2012,09,30,03,26,9.30
2012,09,30,03,27,9.30
2012,09,30,03,28,9.30
2012,09,30,03,29,9.30
2012,09,30,03,30,9.30
2012,09,30,03,31,9.30
2012,09,30,03,32,9.30
2012,09,30,03,33,9.30
2012,09,30,03,34,9.30
2012,09,30,03,35,9.30
2012,09,30,03,36,9.30
2012,09,30,03,37,9.30
2012,09,30,03,38,9.30
2012,09,30,03,39,9.30
2012,09,30,03,40,9.40
2012,09,30,03,41,9.40
2012,09,30,03,42,9.40
2012,09,30,03,43,9.40
2012,09,30,03,44,9.40
2012,09,30,03,45,9.40
2012,09,30,03,46,9.40
2012,09,30,03,47,9.50
2012,09,30,03,48,9.50
2012,09,30,03,49,9.50
2012,09,30,03,50,9.50
2012,09,30,03,51,9.50
2012,09,30,03,52,9.50
2012,09,30,03,53,9.50
2012,09,30,03,54,9.50
2012,09,30,03,55,9.50
2012,09,30,03,56,9.60
2012,09,30,03,57,9.60
2012,09,30,03,58,9.60
2012,09,30,03,59,9.60
2012,09,30,04,00,9.50
2012,09,30,04,01,9.50
2012,09,30,04,02,9.50
2012,09,30,04,03,9.50
2012,09,30,04,04,9.50
2012,09,30,04,05,9.50
2012,09,30,04,06,9.50
2012,09,30,04,07,9.50
2012,09,30,04,08,9.50
2012,09,30,04,09,9.50
2012,09,30,04,10,9.50
2012,09,30,04,11,9.50
2012,09,30,04,12,9.50
2012,09,30,04,13,9.40
2012,09,30,04,14,9.40
2012,09,30,04,15,9.40
2012,09,30,04,16,9.40
2012,09,30,04,17,9.40
2012,09,30,04,18,9.40
2012,09,30,04,19,9.40
2012,09,30,04,20,9.40
2012,09,30,04,21,9.40
2012,09,30,04,22,9.40
2012,09,30,04,23,9.40
2012,09,30,04,24,9.50
2012,09,30,04,25,9.50
2012,09,30,04,26,9.50
2012,09,30,04,27,9.50
2012,09,30,04,28,9.60
2012,09,30,04,29,9.60
2012,09,30,04,30,9.60
2012,09,30,04,31,9.60
2012,09,30,04,32,9.50
2012,09,30,04,33,9.50
2012,09,30,04,34,9.50
2012,09,30,04,35,9.50
2012,09,30,04,36,9.40
2012,09,30,04,37,9.40
2012,09,30,04,38,9.40
2012,09,30,04,39,9.40
2012,09,30,04,40,9.40
2012,09,30,04,41,9.30
2012,09,30,04,42,9.30
2012,09,30,04,43,9.30
2012,09,30,04,44,9.30
2012,09,30,04,45,9.30
2012,09,30,04,46,9.30
2012,09,30,04,47,9.30
2012,09,30,04,48,9.20
2012,09,30,04,49,9.20
2012,09,30,04,50,9.30
2012,09,30,04,51,9.30
2012,09,30,04,52,9.30
2012,09,30,04,53,9.30
2012,09,30,04,54,9.30
2012,09,30,04,55,9.30
2012,09,30,04,56,9.30
2012,09,30,04,57,9.30
2012,09,30,04,58,9.30
2012,09,30,04,59,9.30
2012,09,30,05,00,9.30
2012,09,30,05,01,9.30
2012,09,30,05,02,9.30
2012,09,30,05,03,9.20
2012,09,30,05,04,9.20
2012,09,30,05,05,9.10
2012,09,30,05,06,9.00
2012,09,30,05,07,9.00
2012,09,30,05,08,9.00
2012,09,30,05,09,8.90
2012,09,30,05,10,8.90
2012,09,30,05,11,9.00
2012,09,30,05,12,9.00
2012,09,30,05,13,9.10
2012,09,30,05,14,9.10
2012,09,30,05,15,9.20
2012,09,30,05,16,9.20
2012,09,30,05,17,9.20
2012,09,30,05,18,9.20
2012,09,30,05,19,9.20
2012,09,30,05,20,9.20
2012,09,30,05,21,9.20
2012,09,30,05,22,9.20
2012,09,30,05,23,9.20
2012,09,30,05,24,9.20
2012,09,30,05,25,9.20
2012,09,30,05,26,9.20
2012,09,30,05,27,9.20
2012,09,30,05,28,9.20
2012,09,30,05,29,9.20
2012,09,30,05,30,9.20
2012,09,30,05,31,9.10
2012,09,30,05,32,9.00
2012,09,30,05,33,8.90
2012,09,30,05,34,8.90
2012,09,30,05,35,8.80
2012,09,30,05,36,8.70
2012,09,30,05,37,8.60
2012,09,30,05,38,8.50
2012,09,30,05,39,8.40
2012,09,30,05,40,8.30
2012,09,30,05,41,8.30
2012,09,30,05,42,8.20
2012,09,30,05,43,8.20
2012,09,30,05,44,8.20
2012,09,30,05,45,8.10
2012,09,30,05,46,8.10
2012,09,30,05,47,8.10
2012,09,30,05,48,8.10
2012,09,30,05,49,8.10
2012,09,30,05,50,8.10
2012,09,30,05,51,8.10
2012,09,30,05,52,8.10
2012,09,30,05,53,8.10
2012,09,30,05,54,8.10
2012,09,30,05,55,8.10
2012,09,30,05,56,8.20
2012,09,30,05,57,8.20
2012,09,30,05,58,8.20
2012,09,30,05,59,8.20
2012,09,30,06,00,8.20
2012,09,30,06,01,8.20
2012,09,30,06,02,8.20
2012,09,30,06,03,8.20
2012,09,30,06,04,8.20
2012,09,30,06,05,8.20
2012,09,30,06,06,8.10
2012,09,30,06,07,8.10
2012,09,30,06,08,8.10
2012,09,30,06,09,8.00
2012,09,30,06,10,8.00
2012,09,30,06,11,8.00
2012,09,30,06,12,8.00
2012,09,30,06,13,8.00
2012,09,30,06,14,7.90
2012,09,30,06,15,7.90
2012,09,30,06,16,7.90
2012,09,30,06,17,7.90
2012,09,30,06,18,7.80
2012,09,30,06,19,7.80
2012,09,30,06,20,7.80
2012,09,30,06,21,7.80
2012,09,30,06,22,7.80
2012,09,30,06,23,7.90
2012,09,30,06,24,7.90
2012,09,30,06,25,7.90
2012,09,30,06,26,7.90
2012,09,30,06,27,7.90
2012,09,30,06,28,7.90
2012,09,30,06,29,7.90
2012,09,30,06,30,7.90
2012,09,30,06,31,8.00
2012,09,30,06,32,8.00
2012,09,30,06,33,8.00
2012,09,30,06,34,8.10
2012,09,30,06,35,8.10
2012,09,30,06,36,8.20
2012,09,30,06,37,8.20
2012,09,30,06,38,8.20
2012,09,30,06,39,8.30
2012,09,30,06,40,8.30
2012,09,30,06,41,8.40
2012,09,30,06,42,8.40
2012,09,30,06,43,8.30
2012,09,30,06,44,8.30
2012,09,30,06,45,8.30
2012,09,30,06,46,8.30
2012,09,30,06,47,8.20
2012,09,30,06,48,8.20
2012,09,30,06,49,8.20
2012,09,30,06,50,8.20
2012,09,30,06,51,8.20
2012,09,30,06,52,8.20
2012,09,30,06,53,8.30
2012,09,30,06,54,8.30
2012,09,30,06,55,8.30
2012,09,30,06,56,8.30
2012,09,30,06,57,8.40
2012,09,30,06,58,8.40
2012,09,30,06,59,8.40
2012,09,30,07,00,8.40
2012,09,30,07,01,8.30
2012,09,30,07,02,8.30
2012,09,30,07,03,8.30
2012,09,30,07,04,8.30
2012,09,30,07,05,8.40
2012,09,30,07,06,8.50
2012,09,30,07,07,8.60
2012,09,30,07,08,8.60
2012,09,30,07,09,8.70
2012,09,30,07,10,8.70
2012,09,30,07,11,8.70
2012,09,30,07,12,8.70
2012,09,30,07,13,8.70
2012,09,30,07,14,8.70
2012,09,30,07,15,8.70
2012,09,30,07,16,8.70
2012,09,30,07,17,8.70
2012,09,30,07,18,8.70
2012,09,30,07,19,8.70
2012,09,30,07,20,8.70
2012,09,30,07,21,8.70
2012,09,30,07,22,8.80
2012,09,30,07,23,8.80
2012,09,30,07,24,8.80
2012,09,30,07,25,8.70
2012,09,30,07,26,8.70
2012,09,30,07,27,8.70
2012,09,30,07,28,8.70
2012,09,30,07,29,8.70
2012,09,30,07,30,8.70
2012,09,30,07,31,8.70
2012,09,30,07,32,8.70
2012,09,30,07,33,8.70
2012,09,30,07,34,8.70
2012,09,30,07,35,8.60
2012,09,30,07,36,8.60
2012,09,30,07,37,8.50
2012,09,30,07,38,8.50
2012,09,30,07,39,8.50
2012,09,30,07,40,8.50
2012,09,30,07,41,8.50
2012,09,30,07,42,8.60
2012,09,30,07,43,8.60
2012,09,30,07,44,8.70
2012,09,30,07,45,8.70
2012,09,30,07,46,8.70
2012,09,30,07,47,8.70
2012,09,30,07,48,8.70
2012,09,30,07,49,8.80
2012,09,30,07,50,8.80
2012,09,30,07,51,8.80
2012,09,30,07,52,8.70
2012,09,30,07,53,8.70
2012,09,30,07,54,8.80
2012,09,30,07,55,8.80
2012,09,30,07,56,8.80
2012,09,30,07,57,8.80
2012,09,30,07,58,8.90
2012,09,30,07,59,8.90
2012,09,30,08,00,8.90
2012,09,30,08,01,9.00
2012,09,30,08,02,9.10
2012,09,30,08,03,9.20
2012,09,30,08,04,9.20
2012,09,30,08,05,9.20
2012,09,30,08,06,9.20
2012,09,30,08,07,9.20
2012,09,30,08,08,9.20
2012,09,30,08,09,9.20
2012,09,30,08,10,9.20
2012,09,30,08,11,9.20
2012,09,30,08,12,9.30
2012,09,30,08,13,9.30
2012,09,30,08,14,9.40
2012,09,30,08,15,9.40
2012,09,30,08,16,9.40
2012,09,30,08,17,9.50
2012,09,30,08,18,9.50
2012,09,30,08,19,9.50
2012,09,30,08,20,9.50
2012,09,30,08,21,9.50
2012,09,30,08,22,9.60
2012,09,30,08,23,9.60
2012,09,30,08,24,9.60
2012,09,30,08,25,9.60
2012,09,30,08,26,9.60
2012,09,30,08,27,9.60
2012,09,30,08,28,9.60
2012,09,30,08,29,9.60
2012,09,30,08,30,9.70
2012,09,30,08,31,9.70
2012,09,30,08,32,9.70
2012,09,30,08,33,9.70
2012,09,30,08,34,9.70
2012,09,30,08,35,9.80
2012,09,30,08,36,9.80
2012,09,30,08,37,9.80
2012,09,30,08,38,9.80
2012,09,30,08,39,9.80
2012,09,30,08,40,9.90
2012,09,30,08,41,9.90
2012,09,30,08,42,9.90
2012,09,30,08,43,9.90
2012,09,30,08,44,9.90
2012,09,30,08,45,9.90
2012,09,30,08,46,9.90
2012,09,30,08,47,9.90
2012,09,30,08,48,9.90
2012,09,30,08,49,9.90
2012,09,30,08,50,9.90
2012,09,30,08,51,9.90
2012,09,30,08,52,9.90
2012,09,30,08,53,9.90
2012,09,30,08,54,9.90
2012,09,30,08,55,9.90
2012,09,30,08,56,9.90
2012,09,30,08,57,9.90
2012,09,30,08,58,9.90
2012,09,30,08,59,10.00
2012,09,30,09,00,10.10
2012,09,30,09,01,10.10
2012,09,30,09,02,10.10
2012,09,30,09,03,10.20
2012,09,30,09,04,10.20
2012,09,30,09,05,10.30
2012,09,30,09,06,10.40
2012,09,30,09,07,10.40
2012,09,30,09,08,10.40
2012,09,30,09,09,10.60
2012,09,30,09,10,10.60
2012,09,30,09,11,10.70
2012,09,30,09,12,10.70
2012,09,30,09,13,10.70
2012,09,30,09,14,10.70
2012,09,30,09,15,10.70
2012,09,30,09,16,10.70
2012,09,30,09,17,10.70
2012,09,30,09,18,10.70
2012,09,30,09,19,10.70
2012,09,30,09,20,10.70
2012,09,30,09,21,10.70
2012,09,30,09,22,10.70
2012,09,30,09,23,10.70
2012,09,30,09,24,10.70
2012,09,30,09,25,10.70
2012,09,30,09,26,10.80
2012,09,30,09,27,10.80
2012,09,30,09,28,10.80
2012,09,30,09,29,10.80
2012,09,30,09,30,10.80
2012,09,30,09,31,10.80
2012,09,30,09,32,10.90
2012,09,30,09,33,10.90
2012,09,30,09,34,10.90
2012,09,30,09,35,10.90
2012,09,30,09,36,11.00
2012,09,30,09,37,11.10
2012,09,30,09,38,11.10
2012,09,30,09,39,11.20
2012,09,30,09,40,11.30
2012,09,30,09,41,11.30
2012,09,30,09,42,11.40
2012,09,30,09,43,11.40
2012,09,30,09,44,11.50
2012,09,30,09,45,11.60
2012,09,30,09,46,11.60
2012,09,30,09,47,11.60
2012,09,30,09,48,11.60
2012,09,30,09,49,11.60
2012,09,30,09,50,11.60
2012,09,30,09,51,11.60
2012,09,30,09,52,11.60
2012,09,30,09,53,11.70
2012,09,30,09,54,11.80
2012,09,30,09,55,11.80
2012,09,30,09,56,11.80
2012,09,30,09,57,11.80
2012,09,30,09,58,11.80
2012,09,30,09,59,11.80
2012,09,30,10,00,11.80
2012,09,30,10,01,11.80
2012,09,30,10,02,11.80
2012,09,30,10,03,11.80
2012,09,30,10,04,11.80
2012,09,30,10,05,11.80
2012,09,30,10,06,11.90
2012,09,30,10,07,11.90
2012,09,30,10,08,11.90
2012,09,30,10,09,11.90
2012,09,30,10,10,12.00
2012,09,30,10,11,12.10
2012,09,30,10,12,12.20
2012,09,30,10,13,12.20
2012,09,30,10,14,12.30
2012,09,30,10,15,12.30
2012,09,30,10,16,12.40
2012,09,30,10,17,12.40
2012,09,30,10,18,12.40
2012,09,30,10,19,12.40
2012,09,30,10,20,12.40
2012,09,30,10,21,12.30
2012,09,30,10,22,12.30
2012,09,30,10,23,12.30
2012,09,30,10,24,12.30
2012,09,30,10,25,12.30
2012,09,30,10,26,12.30
2012,09,30,10,27,12.30
2012,09,30,10,28,12.30
2012,09,30,10,29,12.30
2012,09,30,10,30,12.30
2012,09,30,10,31,12.40
2012,09,30,10,32,12.40
2012,09,30,10,33,12.50
2012,09,30,10,34,12.50
2012,09,30,10,35,12.60
2012,09,30,10,36,12.70
2012,09,30,10,37,12.80
2012,09,30,10,38,12.90
2012,09,30,10,39,12.90
2012,09,30,10,40,13.00
2012,09,30,10,41,13.00
2012,09,30,10,42,13.00
2012,09,30,10,43,12.90
2012,09,30,10,44,13.00
2012,09,30,10,45,13.00
2012,09,30,10,46,13.00
2012,09,30,10,47,13.10
2012,09,30,10,48,13.20
2012,09,30,10,49,13.20
2012,09,30,10,50,13.30
2012,09,30,10,51,13.30
2012,09,30,10,52,13.40
2012,09,30,10,53,13.50
2012,09,30,10,54,13.50
2012,09,30,10,55,13.60
2012,09,30,10,56,13.70
2012,09,30,10,57,13.70
2012,09,30,10,58,13.70
2012,09,30,10,59,13.70
2012,09,30,11,00,13.80
2012,09,30,11,01,13.80
2012,09,30,11,02,13.80
2012,09,30,11,03,13.80
2012,09,30,11,04,13.80
2012,09,30,11,05,13.80
2012,09,30,11,06,13.80
2012,09,30,11,07,13.80
2012,09,30,11,08,13.80
2012,09,30,11,09,13.80
2012,09,30,11,10,13.70
2012,09,30,11,11,13.70
2012,09,30,11,12,13.70
2012,09,30,11,13,13.70
2012,09,30,11,14,13.70
2012,09,30,11,15,13.70
2012,09,30,11,16,13.70
2012,09,30,11,17,13.70
2012,09,30,11,18,13.80
2012,09,30,11,19,13.90
2012,09,30,11,20,13.90
2012,09,30,11,21,13.90
2012,09,30,11,22,14.00
2012,09,30,11,23,14.00
2012,09,30,11,24,14.10
2012,09,30,11,25,14.20
2012,09,30,11,26,14.20
2012,09,30,11,27,14.20
2012,09,30,11,28,14.20
2012,09,30,11,29,14.20
2012,09,30,11,30,14.20
2012,09,30,11,31,14.20
2012,09,30,11,32,14.20
2012,09,30,11,33,14.20
2012,09,30,11,34,14.20
2012,09,30,11,35,14.30
2012,09,30,11,36,14.30
2012,09,30,11,37,14.30
2012,09,30,11,38,14.30
2012,09,30,11,39,14.30
2012,09,30,11,40,14.20
2012,09,30,11,41,14.30
2012,09,30,11,42,14.30
2012,09,30,11,43,14.40
2012,09,30,11,44,14.40
2012,09,30,11,45,14.40
2012,09,30,11,46,14.40
2012,09,30,11,47,14.40
2012,09,30,11,48,14.30
2012,09,30,11,49,14.30
2012,09,30,11,50,14.30
2012,09,30,11,51,14.30
2012,09,30,11,52,14.20
2012,09,30,11,53,14.20
2012,09,30,11,54,14.20
2012,09,30,11,55,14.20
2012,09,30,11,56,14.20
2012,09,30,11,57,14.20
2012,09,30,11,58,14.30
2012,09,30,11,59,14.40
2012,09,30,12,00,14.50
2012,09,30,12,01,14.50
2012,09,30,12,02,14.60
2012,09,30,12,03,14.50
2012,09,30,12,04,14.50
2012,09,30,12,05,14.40
2012,09,30,12,06,14.50
2012,09,30,12,07,14.40
2012,09,30,12,08,14.40
2012,09,30,12,09,14.40
2012,09,30,12,10,14.40
2012,09,30,12,11,14.50
2012,09,30,12,12,14.50
2012,09,30,12,13,14.50
2012,09,30,12,14,14.50
2012,09,30,12,15,14.50
2012,09,30,12,16,14.50
2012,09,30,12,17,14.50
2012,09,30,12,18,14.50
2012,09,30,12,19,14.50
2012,09,30,12,20,14.50
2012,09,30,12,21,14.50
2012,09,30,12,22,14.50
2012,09,30,12,23,14.50
2012,09,30,12,24,14.50
2012,09,30,12,25,14.60
2012,09,30,12,26,14.50
2012,09,30,12,27,14.50
2012,09,30,12,28,14.60
2012,09,30,12,29,14.70
2012,09,30,12,30,14.80
2012,09,30,12,31,14.80
2012,09,30,12,32,14.90
2012,09,30,12,33,15.00
2012,09,30,12,34,15.10
2012,09,30,12,35,15.20
2012,09,30,12,36,15.20
2012,09,30,12,37,15.20
2012,09,30,12,38,15.20
2012,09,30,12,39,15.20
2012,09,30,12,40,15.20
2012,09,30,12,41,15.20
2012,09,30,12,42,15.20
2012,09,30,12,43,15.20
2012,09,30,12,44,15.20
2012,09,30,12,45,15.30
2012,09,30,12,46,15.30
2012,09,30,12,47,15.30
2012,09,30,12,48,15.30
2012,09,30,12,49,15.30
2012,09,30,12,50,15.20
2012,09,30,12,51,15.20
2012,09,30,12,52,15.20
2012,09,30,12,53,15.20
2012,09,30,12,54,15.20
2012,09,30,12,55,15.20
2012,09,30,12,56,15.20
2012,09,30,12,57,15.30
2012,09,30,12,58,15.30
2012,09,30,12,59,15.40
2012,09,30,13,00,15.40
2012,09,30,13,01,15.50
2012,09,30,13,02,15.50
2012,09,30,13,03,15.60
2012,09,30,13,04,15.70
2012,09,30,13,05,15.70
2012,09,30,13,06,15.80
2012,09,30,13,07,16.00
2012,09,30,13,08,16.10
2012,09,30,13,09,16.20
2012,09,30,13,10,16.20
2012,09,30,13,11,16.30
2012,09,30,13,12,16.30
2012,09,30,13,13,16.20
2012,09,30,13,14,16.20
2012,09,30,13,15,16.20
2012,09,30,13,16,16.30
2012,09,30,13,17,16.30
2012,09,30,13,18,16.40
2012,09,30,13,19,16.30
2012,09,30,13,20,16.20
2012,09,30,13,21,16.20
2012,09,30,13,22,16.20
2012,09,30,13,23,16.20
2012,09,30,13,24,16.10
2012,09,30,13,25,16.10
2012,09,30,13,26,16.10
2012,09,30,13,27,16.20
2012,09,30,13,28,16.20
2012,09,30,13,29,16.30
2012,09,30,13,30,16.30
2012,09,30,13,31,16.30
2012,09,30,13,32,16.30
2012,09,30,13,33,16.20
2012,09,30,13,34,16.10
2012,09,30,13,35,16.10
2012,09,30,13,36,16.10
2012,09,30,13,37,16.20
2012,09,30,13,38,16.20
2012,09,30,13,39,16.20
2012,09,30,13,40,16.30
2012,09,30,13,41,16.20
2012,09,30,13,42,16.10
2012,09,30,13,43,16.10
2012,09,30,13,44,16.10
2012,09,30,13,45,16.10
2012,09,30,13,46,16.10
2012,09,30,13,47,16.20
2012,09,30,13,48,16.30
2012,09,30,13,49,16.30
2012,09,30,13,50,16.30
2012,09,30,13,51,16.20
2012,09,30,13,52,16.20
2012,09,30,13,53,16.30
2012,09,30,13,54,16.30
2012,09,30,13,55,16.30
2012,09,30,13,56,16.30
2012,09,30,13,57,16.30
2012,09,30,13,58,16.30
2012,09,30,13,59,16.30
2012,09,30,14,00,16.30
2012,09,30,14,01,16.40
2012,09,30,14,02,16.40
2012,09,30,14,03,16.40
2012,09,30,14,04,16.30
2012,09,30,14,05,16.30
2012,09,30,14,06,16.20
2012,09,30,14,07,16.20
2012,09,30,14,08,16.20
2012,09,30,14,09,16.30
2012,09,30,14,10,16.30
2012,09,30,14,11,16.40
2012,09,30,14,12,16.50
2012,09,30,14,13,16.60
2012,09,30,14,14,16.60
2012,09,30,14,15,16.60
2012,09,30,14,16,16.60
2012,09,30,14,17,16.50
2012,09,30,14,18,16.40
2012,09,30,14,19,16.40
2012,09,30,14,20,16.40
2012,09,30,14,21,16.40
2012,09,30,14,22,16.50
2012,09,30,14,23,16.60
2012,09,30,14,24,16.50
2012,09,30,14,25,16.40
2012,09,30,14,26,16.40
2012,09,30,14,27,16.50
2012,09,30,14,28,16.60
2012,09,30,14,29,16.60
2012,09,30,14,30,16.60
2012,09,30,14,31,16.70
2012,09,30,14,32,16.70
2012,09,30,14,33,16.70
2012,09,30,14,34,16.70
2012,09,30,14,35,16.70
2012,09,30,14,36,16.80
2012,09,30,14,37,16.80
2012,09,30,14,38,16.90
2012,09,30,14,39,16.90
2012,09,30,14,40,16.90
2012,09,30,14,41,16.90
2012,09,30,14,42,16.90
2012,09,30,14,43,16.90
2012,09,30,14,44,16.90
2012,09,30,14,45,16.90
2012,09,30,14,46,16.90
2012,09,30,14,47,16.90
2012,09,30,14,48,16.90
2012,09,30,14,49,16.80
2012,09,30,14,50,16.80
2012,09,30,14,51,16.90
2012,09,30,14,52,16.90
2012,09,30,14,53,16.90
2012,09,30,14,54,16.90
2012,09,30,14,55,17.00
2012,09,30,14,56,17.10
2012,09,30,14,57,17.20
2012,09,30,14,58,17.20
2012,09,30,14,59,17.20
2012,09,30,15,00,17.20
2012,09,30,15,01,17.20
2012,09,30,15,02,17.30
2012,09,30,15,03,17.30
2012,09,30,15,04,17.30
2012,09,30,15,05,17.30
2012,09,30,15,06,17.30
2012,09,30,15,07,17.30
2012,09,30,15,08,17.40
2012,09,30,15,09,17.40
2012,09,30,15,10,17.40
2012,09,30,15,11,17.40
2012,09,30,15,12,17.40
2012,09,30,15,13,17.40
2012,09,30,15,14,17.50
2012,09,30,15,15,17.50
2012,09,30,15,16,17.50
2012,09,30,15,17,17.50
2012,09,30,15,18,17.50
2012,09,30,15,19,17.50
2012,09,30,15,20,17.50
2012,09,30,15,21,17.40
2012,09,30,15,22,17.40
2012,09,30,15,23,17.40
2012,09,30,15,24,17.50
2012,09,30,15,25,17.60
2012,09,30,15,26,17.60
2012,09,30,15,27,17.60
2012,09,30,15,28,17.60
2012,09,30,15,29,17.60
2012,09,30,15,30,17.60
2012,09,30,15,31,17.60
2012,09,30,15,32,17.70
2012,09,30,15,33,17.70
2012,09,30,15,34,17.70
2012,09,30,15,35,17.70
2012,09,30,15,36,17.70
2012,09,30,15,37,17.80
2012,09,30,15,38,17.80
2012,09,30,15,39,17.80
2012,09,30,15,40,17.70
2012,09,30,15,41,17.60
2012,09,30,15,42,17.70
2012,09,30,15,43,17.70
2012,09,30,15,44,17.80
2012,09,30,15,45,17.80
2012,09,30,15,46,17.90
2012,09,30,15,47,17.90
2012,09,30,15,48,17.90
2012,09,30,15,49,17.90
2012,09,30,15,50,17.80
2012,09,30,15,51,17.80
2012,09,30,15,52,17.80
2012,09,30,15,53,17.70
2012,09,30,15,54,17.60
2012,09,30,15,55,17.50
2012,09,30,15,56,17.40
2012,09,30,15,57,17.40
2012,09,30,15,58,17.40
2012,09,30,15,59,17.40
2012,09,30,16,00,17.50
2012,09,30,16,01,17.50
2012,09,30,16,02,17.50
2012,09,30,16,03,17.50
2012,09,30,16,04,17.50
2012,09,30,16,05,17.50
2012,09,30,16,06,17.50
2012,09,30,16,07,17.50
2012,09,30,16,08,17.50
2012,09,30,16,09,17.50
2012,09,30,16,10,17.40
2012,09,30,16,11,17.40
2012,09,30,16,12,17.40
2012,09,30,16,13,17.40
2012,09,30,16,14,17.40
2012,09,30,16,15,17.40
2012,09,30,16,16,17.40
2012,09,30,16,17,17.50
2012,09,30,16,18,17.50
2012,09,30,16,19,17.60
2012,09,30,16,20,17.70
2012,09,30,16,21,17.70
2012,09,30,16,22,17.60
2012,09,30,16,23,17.60
2012,09,30,16,24,17.50
2012,09,30,16,25,17.50
2012,09,30,16,26,17.50
2012,09,30,16,27,17.40
2012,09,30,16,28,17.40
2012,09,30,16,29,17.40
2012,09,30,16,30,17.50
2012,09,30,16,31,17.50
2012,09,30,16,32,17.50
2012,09,30,16,33,17.50
2012,09,30,16,34,17.50
2012,09,30,16,35,17.40
2012,09,30,16,36,17.40
2012,09,30,16,37,17.30
2012,09,30,16,38,17.40
2012,09,30,16,39,17.40
2012,09,30,16,40,17.40
2012,09,30,16,41,17.40
2012,09,30,16,42,17.40
2012,09,30,16,43,17.40
2012,09,30,16,44,17.30
2012,09,30,16,45,17.30
2012,09,30,16,46,17.30
2012,09,30,16,47,17.30
2012,09,30,16,48,17.30
2012,09,30,16,49,17.30
2012,09,30,16,50,17.30
2012,09,30,16,51,17.40
2012,09,30,16,52,17.40
2012,09,30,16,53,17.50
2012,09,30,16,54,17.50
2012,09,30,16,55,17.50
2012,09,30,16,56,17.50
2012,09,30,16,57,17.50
2012,09,30,16,58,17.50
2012,09,30,16,59,17.50
2012,09,30,17,00,17.50
2012,09,30,17,01,17.60
2012,09,30,17,02,17.60
2012,09,30,17,03,17.60
2012,09,30,17,04,17.60
2012,09,30,17,05,17.70
2012,09,30,17,06,17.70
2012,09,30,17,07,17.70
2012,09,30,17,08,17.70
2012,09,30,17,09,17.70
2012,09,30,17,10,17.80
2012,09,30,17,11,17.80
2012,09,30,17,12,17.80
2012,09,30,17,13,17.90
2012,09,30,17,14,17.90
2012,09,30,17,15,17.90
2012,09,30,17,16,17.90
2012,09,30,17,17,18.00
2012,09,30,17,18,18.10
2012,09,30,17,19,18.10
2012,09,30,17,20,18.00
2012,09,30,17,21,17.90
2012,09,30,17,22,17.90
2012,09,30,17,23,17.90
2012,09,30,17,24,17.90
2012,09,30,17,25,17.90
2012,09,30,17,26,17.90
2012,09,30,17,27,17.90
2012,09,30,17,28,17.90
2012,09,30,17,29,17.90
2012,09,30,17,30,17.90
2012,09,30,17,31,17.90
2012,09,30,17,32,17.90
2012,09,30,17,33,17.90
2012,09,30,17,34,17.90
2012,09,30,17,35,17.90
2012,09,30,17,36,17.90
2012,09,30,17,37,17.80
2012,09,30,17,38,17.80
2012,09,30,17,39,17.80
2012,09,30,17,40,17.80
2012,09,30,17,41,17.80
2012,09,30,17,42,17.80